| time (UTC) | temp F | wind direction | speed MPH | gust MPH | rain 1hr in | rain 24hr in | rain mn in | humidity % | barometer mb |
| 20260904141433 | 56 | 48 | 0.0 | 1.0 | 0.00 | 0.00 | 0.00 | 10 | 1009.7 |
| 20260904140931 | 56 | 38 | 0.0 | 0.0 | 0.00 | 0.00 | 0.00 | 10 | 1009.8 |
| 20260904140430 | 55 | 46 | 0.0 | 0.0 | 0.00 | 0.00 | 0.00 | 10 | 1009.8 |
| 20260904135929 | 55 | 55 | 0.0 | 0.0 | 0.00 | 0.00 | 0.00 | 10 | 1009.9 |
| 20260904135429 | 55 | 46 | 0.0 | 0.0 | 0.00 | 0.00 | 0.00 | 10 | 1009.9 |
| 20260904134925 | 55 | 38 | 0.0 | 0.0 | 0.00 | 0.00 | 0.00 | 10 | 1010.0 |
| 20260904134425 | 54 | 29 | 0.0 | 1.0 | 0.00 | 0.00 | 0.00 | 10 | 1010.1 |
| 20260904133920 | 54 | 31 | 0.0 | 1.0 | 0.00 | 0.00 | 0.00 | 10 | 1010.0 |
| 20260904133414 | 53 | 33 | 0.0 | 0.0 | 0.00 | 0.00 | 0.00 | 10 | 1010.0 |
| 20260904132910 | 53 | 41 | 0.0 | 0.0 | 0.00 | 0.00 | 0.00 | 10 | 1010.1 |
| 20260904132405 | 52 | 44 | 0.0 | 0.0 | 0.00 | 0.00 | 0.00 | 10 | 1010.1 |
| 20260904131905 | 52 | 42 | 0.0 | 0.0 | 0.00 | 0.00 | 0.00 | 10 | 1009.9 |
| 20260904131400 | 52 | 44 | 0.0 | 0.0 | 0.00 | 0.00 | 0.00 | 10 | 1009.8 |
| 20260904130855 | 51 | 34 | 0.0 | 0.0 | 0.00 | 0.00 | 0.00 | 10 | 1009.6 |
| 20260904130355 | 51 | 49 | 0.0 | 0.0 | 0.00 | 0.00 | 0.00 | 10 | 1009.7 |
| 20260904125850 | 50 | 47 | 0.0 | 0.0 | 0.00 | 0.00 | 0.00 | 10 | 1009.8 |
| 20260904125346 | 51 | 53 | 0.0 | 0.0 | 0.00 | 0.00 | 0.00 | 10 | 1009.7 |
| 20260904124845 | 51 | 42 | 0.0 | 0.0 | 0.00 | 0.00 | 0.00 | 10 | 1009.7 |
| 20260904124342 | 51 | 36 | 0.0 | 0.0 | 0.00 | 0.00 | 0.00 | 10 | 1009.4 |
| 20260904123836 | 52 | 37 | 0.0 | 0.0 | 0.00 | 0.00 | 0.00 | 10 | 1009.4 |
| 20260904123332 | 52 | 31 | 0.0 | 0.0 | 0.00 | 0.00 | 0.00 | 10 | 1009.3 |
| 20260904122827 | 53 | 45 | 0.0 | 0.0 | 0.00 | 0.00 | 0.00 | 10 | 1009.7 |
| 20260904122327 | 53 | 38 | 0.0 | 0.0 | 0.00 | 0.00 | 0.00 | 10 | 1009.7 |
| 20260904121821 | 53 | 35 | 0.0 | 0.0 | 0.00 | 0.00 | 0.00 | 10 | 1009.7 |
| 20260904121318 | 53 | 34 | 0.0 | 0.0 | 0.00 | 0.00 | 0.00 | 10 | 1009.7 |
| 20260904120814 | 52 | 30 | 0.0 | 0.0 | 0.00 | 0.00 | 0.00 | 10 | 1009.8 |
| 20260904120309 | 51 | 38 | 0.0 | 0.0 | 0.00 | 0.00 | 0.00 | 10 | 1009.7 |
| 20260904115804 | 52 | 42 | 0.0 | 0.0 | 0.00 | 0.00 | 0.00 | 10 | 1009.7 |
| 20260904115300 | 52 | 35 | 0.0 | 0.0 | 0.00 | 0.00 | 0.00 | 10 | 1009.8 |
| 20260904114754 | 53 | 43 | 0.0 | 0.0 | 0.00 | 0.00 | 0.00 | 10 | 1009.6 |
| 20260904114254 | 53 | 39 | 0.0 | 0.0 | 0.00 | 0.00 | 0.00 | 10 | 1009.8 |
| 20260904113749 | 53 | 45 | 0.0 | 0.0 | 0.00 | 0.00 | 0.00 | 10 | 1009.6 |
| 20260904113248 | 53 | 43 | 0.0 | 0.0 | 0.00 | 0.00 | 0.00 | 10 | 1009.4 |
| 20260904112743 | 53 | 38 | 0.0 | 0.0 | 0.00 | 0.00 | 0.00 | 10 | 1009.7 |
| 20260904112239 | 53 | 40 | 0.0 | 0.0 | 0.00 | 0.00 | 0.00 | 10 | 1009.8 |
| 20260904111735 | 53 | 40 | 0.0 | 0.0 | 0.00 | 0.00 | 0.00 | 10 | 1009.8 |
| 20260904111230 | 54 | 47 | 0.0 | 0.0 | 0.00 | 0.00 | 0.00 | 10 | 1009.7 |
| 20260904110726 | 54 | 46 | 0.0 | 0.0 | 0.00 | 0.00 | 0.00 | 10 | 1009.9 |
| 20260904110225 | 54 | 46 | 0.0 | 0.0 | 0.00 | 0.00 | 0.00 | 10 | 1009.8 |
| 20260904105720 | 54 | 58 | 0.0 | 0.0 | 0.00 | 0.00 | 0.00 | 10 | 1009.9 |
| 20260904105215 | 54 | 56 | 0.0 | 0.0 | 0.00 | 0.00 | 0.00 | 10 | 1009.9 |
| 20260904104710 | 54 | 49 | 0.0 | 0.0 | 0.00 | 0.00 | 0.00 | 10 | 1009.9 |
| 20260904104206 | 54 | 45 | 0.0 | 0.0 | 0.00 | 0.00 | 0.00 | 10 | 1010.2 |
| 20260904103702 | 54 | 43 | 0.0 | 0.0 | 0.00 | 0.00 | 0.00 | 10 | 1010.0 |
| 20260904103157 | 53 | 47 | 0.0 | 0.0 | 0.00 | 0.00 | 0.00 | 10 | 1010.1 |
| 20260904102653 | 52 | 53 | 0.0 | 0.0 | 0.00 | 0.00 | 0.00 | 10 | 1010.3 |
| 20260904102148 | 52 | 43 | 0.0 | 0.0 | 0.00 | 0.00 | 0.00 | 10 | 1010.4 |
| 20260904101645 | 51 | 44 | 0.0 | 0.0 | 0.00 | 0.00 | 0.00 | 10 | 1010.3 |
| 20260904101140 | 51 | 32 | 0.0 | 0.0 | 0.00 | 0.00 | 0.00 | 10 | 1010.3 |
| 20260904100635 | 51 | 28 | 0.0 | 0.0 | 0.00 | 0.00 | 0.00 | 10 | 1010.2 |
| 20260904100125 | 51 | 47 | 0.0 | 0.0 | 0.00 | 0.00 | 0.00 | 10 | 1010.3 |
| 20260904095620 | 51 | 35 | 0.0 | 0.0 | 0.00 | 0.00 | 0.00 | 10 | 1010.5 |
| 20260904095120 | 53 | 27 | 0.0 | 0.0 | 0.00 | 0.00 | 0.00 | 10 | 1010.3 |
| 20260904094615 | 53 | 32 | 0.0 | 0.0 | 0.00 | 0.00 | 0.00 | 10 | 1010.3 |
| 20260904094109 | 53 | 46 | 0.0 | 0.0 | 0.00 | 0.00 | 0.00 | 10 | 1010.5 |
| 20260904093607 | 52 | 42 | 0.0 | 0.0 | 0.00 | 0.00 | 0.00 | 10 | 1010.8 |
| 20260904093101 | 51 | 41 | 0.0 | 0.0 | 0.00 | 0.00 | 0.00 | 10 | 1010.4 |
| 20260904092557 | 51 | 53 | 0.0 | 0.0 | 0.00 | 0.00 | 0.00 | 10 | 1010.3 |
| 20260904092053 | 51 | 46 | 0.0 | 0.0 | 0.00 | 0.00 | 0.00 | 10 | 1010.7 |
| 20260904091549 | 49 | 48 | 0.0 | 0.0 | 0.00 | 0.00 | 0.00 | 10 | 1010.7 |
| 20260904091048 | 49 | 44 | 0.0 | 0.0 | 0.00 | 0.00 | 0.00 | 10 | 1010.8 |
| 20260904090544 | 50 | 36 | 0.0 | 0.0 | 0.00 | 0.00 | 0.00 | 10 | 1010.9 |
| 20260904090040 | 50 | 51 | 0.0 | 0.0 | 0.00 | 0.00 | 0.00 | 10 | 1010.9 |
| 20260904085540 | 50 | 49 | 0.0 | 0.0 | 0.00 | 0.00 | 0.00 | 10 | 1011.0 |
| 20260904085039 | 50 | 51 | 0.0 | 0.0 | 0.00 | 0.00 | 0.00 | 10 | 1010.9 |
| 20260904084536 | 50 | 47 | 0.0 | 0.0 | 0.00 | 0.00 | 0.00 | 10 | 1010.8 |
| 20260904084032 | 50 | 65 | 0.0 | 0.0 | 0.00 | 0.00 | 0.00 | 10 | 1011.0 |
| 20260904083527 | 50 | 86 | 0.0 | 0.0 | 0.00 | 0.00 | 0.00 | 10 | 1011.0 |
| 20260904083023 | 51 | 84 | 0.0 | 0.0 | 0.00 | 0.00 | 0.00 | 10 | 1011.1 |
| 20260904082518 | 51 | 86 | 0.0 | 0.0 | 0.00 | 0.00 | 0.00 | 10 | 1011.0 |
| 20260904082013 | 51 | 101 | 0.0 | 0.0 | 0.00 | 0.00 | 0.00 | 10 | 1011.3 |
| 20260904081508 | 51 | 81 | 0.0 | 0.0 | 0.00 | 0.00 | 0.00 | 10 | 1011.0 |
| 20260904081004 | 52 | 51 | 0.0 | 0.0 | 0.00 | 0.00 | 0.00 | 10 | 1011.4 |
| 20260904080459 | 53 | 71 | 0.0 | 0.0 | 0.00 | 0.00 | 0.00 | 10 | 1011.4 |
| 20260904075955 | 53 | 60 | 0.0 | 0.0 | 0.00 | 0.00 | 0.00 | 10 | 1011.5 |
| 20260904075451 | 54 | 67 | 0.0 | 0.0 | 0.00 | 0.00 | 0.00 | 10 | 1011.3 |
| 20260904074950 | 55 | 76 | 0.0 | 0.0 | 0.00 | 0.00 | 0.00 | 10 | 1011.3 |
| 20260904074445 | 55 | 83 | 0.0 | 0.0 | 0.00 | 0.00 | 0.00 | 10 | 1011.5 |
| 20260904073940 | 55 | 70 | 0.0 | 0.0 | 0.00 | 0.00 | 0.00 | 10 | 1011.4 |
| 20260904073436 | 56 | 59 | 0.0 | 0.0 | 0.00 | 0.00 | 0.00 | 10 | 1011.3 |
| 20260904072931 | 55 | 64 | 0.0 | 0.0 | 0.00 | 0.00 | 0.00 | 10 | 1011.4 |
| 20260904072427 | 55 | 49 | 0.0 | 0.0 | 0.00 | 0.00 | 0.00 | 10 | 1011.4 |
| 20260904071921 | 56 | 49 | 0.0 | 0.0 | 0.00 | 0.00 | 0.00 | 10 | 1011.5 |
| 20260904071417 | 56 | 49 | 0.0 | 0.0 | 0.00 | 0.00 | 0.00 | 10 | 1011.6 |
| 20260904070912 | 56 | 49 | 0.0 | 0.0 | 0.00 | 0.00 | 0.00 | 10 | 1011.5 |
| 20260904070411 | 56 | 49 | 0.0 | 0.0 | 0.00 | 0.00 | 0.00 | 10 | 1011.6 |
| 20260904065910 | 57 | 50 | 0.0 | 0.0 | 0.00 | 0.00 | 0.00 | 10 | 1011.5 |
| 20260904065407 | 57 | 50 | 0.0 | 0.0 | 0.00 | 0.00 | 0.00 | 10 | 1011.8 |
| 20260904064906 | 57 | 50 | 0.0 | 0.0 | 0.00 | 0.00 | 0.00 | 10 | 1011.8 |
| 20260904064403 | 57 | 50 | 0.0 | 0.0 | 0.00 | 0.00 | 0.00 | 10 | 1011.8 |
| 20260904063858 | 57 | 49 | 0.0 | 0.0 | 0.00 | 0.00 | 0.00 | 10 | 1011.6 |
| 20260904063355 | 57 | 48 | 0.0 | 0.0 | 0.00 | 0.00 | 0.00 | 10 | 1011.6 |
| 20260904062849 | 57 | 44 | 0.0 | 0.0 | 0.00 | 0.00 | 0.00 | 10 | 1011.8 |
| 20260904062345 | 57 | 26 | 0.0 | 0.0 | 0.00 | 0.00 | 0.00 | 10 | 1011.5 |
| 20260904061841 | 56 | 13 | 0.0 | 0.0 | 0.00 | 0.00 | 0.00 | 10 | 1011.6 |
| 20260904061337 | 56 | 36 | 0.0 | 0.0 | 0.00 | 0.00 | 0.00 | 10 | 1011.8 |
| 20260904060833 | 56 | 35 | 0.0 | 0.0 | 0.00 | 0.00 | 0.00 | 10 | 1011.5 |
| 20260904060329 | 56 | 43 | 0.0 | 0.0 | 0.00 | 0.00 | 0.00 | 10 | 1011.5 |
| 20260904055824 | 56 | 26 | 0.0 | 0.0 | 0.00 | 0.00 | 0.00 | 10 | 1011.5 |
| 20260904055319 | 55 | 28 | 0.0 | 0.0 | 0.00 | 0.00 | 0.00 | 10 | 1011.5 |
| 20260904054815 | 54 | 22 | 0.0 | 0.0 | 0.00 | 0.00 | 0.00 | 10 | 1011.6 |
| 20260904054311 | 54 | 9 | 0.0 | 0.0 | 0.00 | 0.00 | 0.00 | 10 | 1011.8 |
| 20260904053806 | 55 | 304 | 0.0 | 0.0 | 0.00 | 0.00 | 0.00 | 10 | 1011.6 |
| 20260904053305 | 56 | 12 | 0.0 | 0.0 | 0.00 | 0.00 | 0.00 | 10 | 1012.0 |
| 20260904052801 | 55 | 33 | 0.0 | 0.0 | 0.00 | 0.00 | 0.00 | 10 | 1012.2 |
| 20260904052258 | 56 | 5 | 0.0 | 0.0 | 0.00 | 0.00 | 0.00 | 10 | 1012.1 |
| 20260904051754 | 55 | 20 | 0.0 | 0.0 | 0.00 | 0.00 | 0.00 | 10 | 1012.3 |
| 20260904051249 | 56 | 23 | 0.0 | 0.0 | 0.00 | 0.00 | 0.00 | 10 | 1012.3 |
| 20260904050744 | 55 | 17 | 0.0 | 0.0 | 0.00 | 0.00 | 0.00 | 10 | 1012.3 |
| 20260904050240 | 53 | 13 | 0.0 | 0.0 | 0.00 | 0.00 | 0.00 | 10 | 1012.4 |
| 20260904045735 | 53 | 6 | 0.0 | 0.0 | 0.00 | 0.00 | 0.00 | 10 | 1012.0 |
| 20260904045230 | 53 | 10 | 0.0 | 0.0 | 0.00 | 0.00 | 0.00 | 10 | 1012.2 |
| 20260904044724 | 55 | 6 | 0.0 | 0.0 | 0.00 | 0.00 | 0.00 | 10 | 1012.2 |
| 20260904044221 | 54 | 24 | 0.0 | 0.0 | 0.00 | 0.00 | 0.00 | 10 | 1012.3 |
| 20260904043717 | 53 | 31 | 0.0 | 0.0 | 0.00 | 0.00 | 0.00 | 10 | 1012.3 |
| 20260904043213 | 53 | 343 | 0.0 | 0.0 | 0.00 | 0.00 | 0.00 | 10 | 1012.0 |
| 20260904042709 | 55 | 6 | 0.0 | 0.0 | 0.00 | 0.00 | 0.00 | 10 | 1012.1 |
| 20260904042205 | 55 | 34 | 0.0 | 0.0 | 0.00 | 0.00 | 0.00 | 10 | 1012.1 |
| 20260904041704 | 54 | 49 | 0.0 | 0.0 | 0.00 | 0.00 | 0.00 | 10 | 1012.1 |
| 20260904041201 | 53 | 16 | 0.0 | 0.0 | 0.00 | 0.00 | 0.00 | 10 | 1012.1 |
| 20260904040656 | 54 | 36 | 0.0 | 0.0 | 0.00 | 0.00 | 0.00 | 10 | 1012.1 |
| 20260904040152 | 54 | 44 | 0.0 | 0.0 | 0.00 | 0.00 | 0.00 | 10 | 1011.9 |
| 20260904035647 | 55 | 39 | 0.0 | 0.0 | 0.00 | 0.00 | 0.00 | 10 | 1012.2 |
| 20260904035143 | 54 | 56 | 0.0 | 0.0 | 0.00 | 0.00 | 0.00 | 10 | 1012.0 |
| 20260904034641 | 53 | 50 | 0.0 | 0.0 | 0.00 | 0.00 | 0.00 | 10 | 1012.1 |
| 20260904034137 | 52 | 43 | 0.0 | 0.0 | 0.00 | 0.00 | 0.00 | 10 | 1012.1 |
| 20260904033633 | 52 | 25 | 0.0 | 0.0 | 0.00 | 0.00 | 0.00 | 10 | 1011.9 |
| 20260904033130 | 53 | 321 | 0.0 | 0.0 | 0.00 | 0.00 | 0.00 | 10 | 1012.2 |
| 20260904032626 | 54 | 356 | 0.0 | 0.0 | 0.00 | 0.00 | 0.00 | 10 | 1012.1 |
| 20260904032124 | 53 | 42 | 0.0 | 0.0 | 0.00 | 0.00 | 0.00 | 10 | 1012.3 |
| 20260904031624 | 52 | 15 | 0.0 | 0.0 | 0.00 | 0.00 | 0.00 | 10 | 1012.2 |
| 20260904031120 | 53 | 22 | 0.0 | 0.0 | 0.00 | 0.00 | 0.00 | 10 | 1012.0 |
| 20260904030616 | 54 | 59 | 0.0 | 0.0 | 0.00 | 0.00 | 0.00 | 10 | 1012.1 |
| 20260904030111 | 53 | 64 | 0.0 | 0.0 | 0.00 | 0.00 | 0.00 | 10 | 1012.0 |
| 20260904025607 | 54 | 63 | 0.0 | 0.0 | 0.00 | 0.00 | 0.00 | 10 | 1011.8 |
| 20260904025101 | 54 | 61 | 0.0 | 0.0 | 0.00 | 0.00 | 0.00 | 10 | 1012.0 |
| 20260904024557 | 55 | 45 | 0.0 | 0.0 | 0.00 | 0.00 | 0.00 | 10 | 1011.9 |
| 20260904024053 | 56 | 51 | 0.0 | 0.0 | 0.00 | 0.00 | 0.00 | 10 | 1011.9 |
| 20260904023549 | 56 | 50 | 0.0 | 0.0 | 0.00 | 0.00 | 0.00 | 10 | 1011.6 |
| 20260904023044 | 57 | 51 | 0.0 | 0.0 | 0.00 | 0.00 | 0.00 | 10 | 1011.5 |
| 20260904022539 | 58 | 51 | 0.0 | 0.0 | 0.00 | 0.00 | 0.00 | 10 | 1011.3 |
| 20260904022036 | 59 | 36 | 0.0 | 0.0 | 0.00 | 0.00 | 0.00 | 10 | 1011.2 |
| 20260904021531 | 59 | 3 | 0.0 | 0.0 | 0.00 | 0.00 | 0.00 | 10 | 1011.0 |
| 20260904021026 | 59 | 15 | 0.0 | 0.0 | 0.00 | 0.00 | 0.00 | 10 | 1011.1 |
| 20260904020526 | 59 | 24 | 0.0 | 0.0 | 0.00 | 0.00 | 0.00 | 10 | 1011.2 |
| 20260904020021 | 61 | 338 | 0.0 | 0.0 | 0.00 | 0.00 | 0.00 | 10 | 1011.3 |
| 20260904015515 | 62 | 358 | 0.0 | 0.0 | 0.00 | 0.00 | 0.00 | 10 | 1011.2 |
| 20260904015014 | 63 | 339 | 0.0 | 0.0 | 0.00 | 0.00 | 0.00 | 10 | 1011.5 |
| 20260904014509 | 64 | 337 | 0.0 | 0.0 | 0.00 | 0.00 | 0.00 | 10 | 1011.2 |
| 20260904014004 | 64 | 334 | 0.0 | 0.0 | 0.00 | 0.00 | 0.00 | 10 | 1011.4 |
| 20260904013501 | 65 | 328 | 0.0 | 0.0 | 0.00 | 0.00 | 0.00 | 10 | 1011.5 |
| 20260904012957 | 66 | 326 | 0.0 | 0.0 | 0.00 | 0.00 | 0.00 | 10 | 1011.2 |
| 20260904012456 | 66 | 325 | 0.0 | 0.0 | 0.00 | 0.00 | 0.00 | 10 | 1011.3 |
| 20260904011950 | 68 | 334 | 0.0 | 0.0 | 0.00 | 0.00 | 0.00 | 10 | 1011.0 |
| 20260904011445 | 68 | 328 | 0.0 | 0.0 | 0.00 | 0.00 | 0.00 | 10 | 1011.3 |
| 20260904010941 | 69 | 4 | 0.0 | 0.0 | 0.00 | 0.00 | 0.00 | 10 | 1011.1 |
| 20260904010437 | 69 | 332 | 0.0 | 0.0 | 0.00 | 0.00 | 0.00 | 10 | 1011.2 |
| 20260904005931 | 70 | 332 | 0.0 | 2.0 | 0.00 | 0.00 | 0.00 | 10 | 1011.0 |
| 20260904005422 | 70 | 325 | 0.0 | 2.0 | 0.00 | 0.00 | 0.00 | 10 | 1011.0 |
| 20260904004921 | 70 | 329 | 0.0 | 1.0 | 0.00 | 0.00 | 0.00 | 10 | 1011.0 |
| 20260904004419 | 70 | 321 | 0.0 | 0.0 | 0.00 | 0.00 | 0.00 | 10 | 1011.0 |
| 20260904003919 | 71 | 311 | 0.0 | 2.0 | 0.00 | 0.00 | 0.00 | 10 | 1011.0 |
| 20260904003414 | 71 | 322 | 1.0 | 2.0 | 0.00 | 0.00 | 0.00 | 10 | 1011.2 |
| 20260904002909 | 71 | 286 | 0.0 | 2.0 | 0.00 | 0.00 | 0.00 | 10 | 1010.8 |
| 20260904002406 | 71 | 329 | 0.0 | 2.0 | 0.00 | 0.00 | 0.00 | 10 | 1010.9 |
| 20260904001904 | 72 | 314 | 1.0 | 2.0 | 0.00 | 0.00 | 0.00 | 10 | 1010.9 |
| 20260904001401 | 72 | 317 | 0.0 | 0.0 | 0.00 | 0.00 | 0.00 | 10 | 1010.9 |
| 20260904000855 | 72 | 359 | 0.0 | 1.0 | 0.00 | 0.00 | 0.00 | 10 | 1010.8 |
| 20260904000355 | 72 | 317 | 0.0 | 0.0 | 0.00 | 0.00 | 0.00 | 10 | 1010.5 |
| 20260903235849 | 73 | 323 | 1.0 | 2.0 | 0.00 | 0.00 | 0.00 | 10 | 1010.7 |
| 20260903235345 | 72 | 313 | 1.0 | 3.0 | 0.00 | 0.00 | 0.00 | 10 | 1010.4 |
| 20260903234844 | 73 | 293 | 0.0 | 2.0 | 0.00 | 0.00 | 0.00 | 10 | 1010.4 |
| 20260903234340 | 73 | 303 | 1.0 | 3.0 | 0.00 | 0.00 | 0.00 | 10 | 1010.3 |
| 20260903233837 | 73 | 331 | 0.0 | 2.0 | 0.00 | 0.00 | 0.00 | 10 | 1010.2 |
| 20260903233332 | 73 | 296 | 0.0 | 1.0 | 0.00 | 0.00 | 0.00 | 10 | 1010.4 |
| 20260903232831 | 73 | 318 | 1.0 | 3.0 | 0.00 | 0.00 | 0.00 | 10 | 1010.5 |
| 20260903232327 | 73 | 307 | 0.0 | 5.0 | 0.00 | 0.00 | 0.00 | 10 | 1010.3 |
| 20260903231826 | 73 | 330 | 2.0 | 3.0 | 0.00 | 0.00 | 0.00 | 10 | 1010.3 |
| 20260903231322 | 73 | 309 | 1.0 | 3.0 | 0.00 | 0.00 | 0.00 | 10 | 1010.4 |
| 20260903230817 | 73 | 315 | 0.0 | 1.0 | 0.00 | 0.00 | 0.00 | 10 | 1010.4 |
| 20260903230312 | 74 | 296 | 10.0 | 17.0 | 0.00 | 0.00 | 0.00 | 10 | 1010.3 |
| 20260903225808 | 75 | 309 | 1.0 | 2.0 | 0.00 | 0.00 | 0.00 | 10 | 1010.1 |
| 20260903225306 | 74 | 328 | 0.0 | 0.0 | 0.00 | 0.00 | 0.00 | 10 | 1010.0 |
| 20260903224801 | 73 | 321 | 0.0 | 3.0 | 0.00 | 0.00 | 0.00 | 10 | 1010.0 |
| 20260903224256 | 75 | 309 | 0.0 | 1.0 | 0.00 | 0.00 | 0.00 | 10 | 1009.9 |
| 20260903223751 | 75 | 320 | 0.0 | 0.0 | 0.00 | 0.00 | 0.00 | 10 | 1010.0 |
| 20260903223250 | 74 | 331 | 0.0 | 1.0 | 0.00 | 0.00 | 0.00 | 10 | 1009.8 |
| 20260903222745 | 75 | 304 | 1.0 | 2.0 | 0.00 | 0.00 | 0.00 | 10 | 1009.7 |
| 20260903222244 | 76 | 332 | 0.0 | 1.0 | 0.00 | 0.00 | 0.00 | 10 | 1009.6 |
| 20260903221739 | 74 | 334 | 0.0 | 0.0 | 0.00 | 0.00 | 0.00 | 10 | 1009.7 |
| 20260903221238 | 74 | 288 | 0.0 | 1.0 | 0.00 | 0.00 | 0.00 | 10 | 1009.7 |
| 20260903220736 | 75 | 321 | 0.0 | 2.0 | 0.00 | 0.00 | 0.00 | 10 | 1009.6 |
| 20260903220231 | 76 | 279 | 0.0 | 1.0 | 0.00 | 0.00 | 0.00 | 10 | 1009.6 |
| 20260903215730 | 77 | 240 | 0.0 | 2.0 | 0.00 | 0.00 | 0.00 | 10 | 1009.7 |
| 20260903215226 | 74 | 322 | 0.0 | 1.0 | 0.00 | 0.00 | 0.00 | 10 | 1009.3 |
| 20260903214724 | 74 | 318 | 0.0 | 2.0 | 0.00 | 0.00 | 0.00 | 10 | 1009.4 |
| 20260903214220 | 74 | 337 | 0.0 | 1.0 | 0.00 | 0.00 | 0.00 | 10 | 1009.6 |
| 20260903213714 | 75 | 345 | 0.0 | 1.0 | 0.00 | 0.00 | 0.00 | 10 | 1009.4 |
| 20260903213211 | 73 | 308 | 0.0 | 2.0 | 0.00 | 0.00 | 0.00 | 10 | 1009.2 |
| 20260903212706 | 73 | 349 | 0.0 | 0.0 | 0.00 | 0.00 | 0.00 | 10 | 1009.7 |
| 20260903212202 | 74 | 252 | 0.0 | 0.0 | 0.00 | 0.00 | 0.00 | 10 | 1009.6 |
| 20260903211655 | 75 | 323 | 0.0 | 1.0 | 0.00 | 0.00 | 0.00 | 10 | 1009.3 |
| 20260903211152 | 75 | 248 | 0.0 | 1.0 | 0.00 | 0.00 | 0.00 | 10 | 1009.3 |
| 20260903210648 | 73 | 46 | 0.0 | 0.0 | 0.00 | 0.00 | 0.00 | 10 | 1009.4 |
| 20260903210143 | 74 | 284 | 0.0 | 0.0 | 0.00 | 0.00 | 0.00 | 10 | 1009.6 |
| 20260903205643 | 72 | 223 | 0.0 | 0.0 | 0.00 | 0.00 | 0.00 | 10 | 1009.6 |
| 20260903205136 | 72 | 313 | 0.0 | 0.0 | 0.00 | 0.00 | 0.00 | 10 | 1009.6 |
| 20260903204632 | 72 | 322 | 0.0 | 0.0 | 0.00 | 0.00 | 0.00 | 10 | 1009.4 |
| 20260903204128 | 73 | 202 | 0.0 | 0.0 | 0.00 | 0.00 | 0.00 | 10 | 1009.8 |
| 20260903203623 | 73 | 248 | 0.0 | 0.0 | 0.00 | 0.00 | 0.00 | 10 | 1009.9 |
| 20260903203118 | 71 | 284 | 0.0 | 0.0 | 0.00 | 0.00 | 0.00 | 10 | 1010.0 |
| 20260903202613 | 71 | 295 | 0.0 | 2.0 | 0.00 | 0.00 | 0.00 | 10 | 1010.0 |
| 20260903202108 | 72 | 294 | 0.0 | 1.0 | 0.00 | 0.00 | 0.00 | 10 | 1009.7 |
| 20260903201603 | 73 | 306 | 0.0 | 2.0 | 0.00 | 0.00 | 0.00 | 10 | 1009.7 |
| 20260903201102 | 72 | 318 | 0.0 | 1.0 | 0.00 | 0.00 | 0.00 | 10 | 1009.7 |
| 20260903200552 | 71 | 267 | 1.0 | 2.0 | 0.00 | 0.00 | 0.00 | 10 | 1009.7 |
| 20260903200047 | 73 | 237 | 0.0 | 1.0 | 0.00 | 0.00 | 0.00 | 10 | 1010.1 |
| 20260903195543 | 74 | 247 | 0.0 | 0.0 | 0.00 | 0.00 | 0.00 | 10 | 1009.6 |
| 20260903195038 | 73 | 277 | 0.0 | 2.0 | 0.00 | 0.00 | 0.00 | 10 | 1009.6 |
| 20260903194533 | 73 | 313 | 0.0 | 2.0 | 0.00 | 0.00 | 0.00 | 10 | 1009.7 |
| 20260903194028 | 74 | 281 | 0.0 | 1.0 | 0.00 | 0.00 | 0.00 | 10 | 1009.7 |
| 20260903193524 | 73 | 237 | 0.0 | 2.0 | 0.00 | 0.00 | 0.00 | 10 | 1009.4 |
| 20260903193019 | 72 | 306 | 0.0 | 3.0 | 0.00 | 0.00 | 0.00 | 10 | 1009.9 |
| 20260903192517 | 71 | 293 | 0.0 | 2.0 | 0.00 | 0.00 | 0.00 | 10 | 1009.6 |
| 20260903192016 | 72 | 330 | 0.0 | 2.0 | 0.00 | 0.00 | 0.00 | 10 | 1009.7 |
| 20260903191513 | 72 | 295 | 0.0 | 2.0 | 0.00 | 0.00 | 0.00 | 10 | 1009.7 |
| 20260903191007 | 72 | 255 | 0.0 | 2.0 | 0.00 | 0.00 | 0.00 | 10 | 1009.9 |
| 20260903190507 | 73 | 289 | 0.0 | 2.0 | 0.00 | 0.00 | 0.00 | 10 | 1009.7 |
| 20260903190001 | 72 | 290 | 0.0 | 2.0 | 0.00 | 0.00 | 0.00 | 10 | 1009.9 |
| 20260903185457 | 72 | 272 | 0.0 | 1.0 | 0.00 | 0.00 | 0.00 | 10 | 1009.8 |
| 20260903184957 | 73 | 234 | 8.0 | 15.0 | 0.00 | 0.00 | 0.00 | 10 | 1009.6 |
| 20260903184454 | 71 | 248 | 1.0 | 5.0 | 0.00 | 0.00 | 0.00 | 10 | 1009.7 |
| 20260903183954 | 71 | 255 | 0.0 | 3.0 | 0.00 | 0.00 | 0.00 | 10 | 1009.4 |
| 20260903183448 | 72 | 256 | 0.0 | 14.0 | 0.00 | 0.00 | 0.00 | 10 | 1009.6 |
| 20260903182948 | 71 | 259 | 0.0 | 1.0 | 0.00 | 0.00 | 0.00 | 10 | 1009.6 |
| 20260903182447 | 69 | 59 | 0.0 | 1.0 | 0.00 | 0.00 | 0.00 | 10 | 1009.7 |
| 20260903181943 | 69 | 275 | 0.0 | 0.0 | 0.00 | 0.00 | 0.00 | 10 | 1009.3 |
| 20260903181441 | 71 | 298 | 0.0 | 1.0 | 0.00 | 0.00 | 0.00 | 10 | 1009.6 |
| 20260903180936 | 69 | 235 | 0.0 | 0.0 | 0.00 | 0.00 | 0.00 | 10 | 1009.7 |
| 20260903180431 | 70 | 231 | 0.0 | 0.0 | 0.00 | 0.00 | 0.00 | 10 | 1009.8 |
| 20260903175930 | 70 | 259 | 0.0 | 1.0 | 0.00 | 0.00 | 0.00 | 10 | 1009.7 |
| 20260903175425 | 69 | 277 | 0.0 | 2.0 | 0.00 | 0.00 | 0.00 | 10 | 1010.0 |
| 20260903174919 | 69 | 265 | 0.0 | 6.0 | 0.00 | 0.00 | 0.00 | 10 | 1010.2 |
| 20260903174415 | 69 | 259 | 0.0 | 1.0 | 0.00 | 0.00 | 0.00 | 10 | 1009.9 |
| 20260903173914 | 68 | 220 | 0.0 | 1.0 | 0.00 | 0.00 | 0.00 | 10 | 1010.1 |
| 20260903173415 | 67 | 291 | 0.0 | 1.0 | 0.00 | 0.00 | 0.00 | 10 | 1010.0 |
| 20260903172911 | 67 | 294 | 0.0 | 2.0 | 0.00 | 0.00 | 0.00 | 10 | 1010.0 |
| 20260903172411 | 67 | 301 | 0.0 | 5.0 | 0.00 | 0.00 | 0.00 | 10 | 1010.0 |
| 20260903171906 | 67 | 314 | 0.0 | 2.0 | 0.00 | 0.00 | 0.00 | 10 | 1010.1 |
| 20260903171401 | 67 | 292 | 0.0 | 1.0 | 0.00 | 0.00 | 0.00 | 10 | 1010.1 |
| 20260903170901 | 65 | 248 | 0.0 | 0.0 | 0.00 | 0.00 | 0.00 | 10 | 1010.0 |
| 20260903170355 | 65 | 318 | 0.0 | 1.0 | 0.00 | 0.00 | 0.00 | 10 | 1009.9 |
| 20260903165854 | 64 | 310 | 0.0 | 0.0 | 0.00 | 0.00 | 0.00 | 10 | 1009.9 |
| 20260903165349 | 64 | 308 | 0.0 | 0.0 | 0.00 | 0.00 | 0.00 | 10 | 1009.9 |
| 20260903164844 | 63 | 292 | 0.0 | 1.0 | 0.00 | 0.00 | 0.00 | 10 | 1010.1 |
| 20260903164339 | 61 | 297 | 0.0 | 1.0 | 0.00 | 0.00 | 0.00 | 10 | 1010.1 |
| 20260903163838 | 61 | 329 | 0.0 | 1.0 | 0.00 | 0.00 | 0.00 | 10 | 1009.8 |
| 20260903163335 | 60 | 293 | 0.0 | 1.0 | 0.00 | 0.00 | 0.00 | 10 | 1010.1 |
| 20260903162830 | 59 | 299 | 0.0 | 1.0 | 0.00 | 0.00 | 0.00 | 10 | 1009.9 |
| 20260903162327 | 59 | 284 | 0.0 | 0.0 | 0.00 | 0.00 | 0.00 | 10 | 1009.9 |
| 20260903161822 | 59 | 280 | 0.0 | 0.0 | 0.00 | 0.00 | 0.00 | 10 | 1010.0 |
| 20260903161318 | 59 | 345 | 0.0 | 0.0 | 0.00 | 0.00 | 0.00 | 10 | 1010.0 |
| 20260903160813 | 59 | 288 | 0.0 | 0.0 | 0.00 | 0.00 | 0.00 | 10 | 1010.0 |
| 20260903160312 | 59 | 269 | 0.0 | 0.0 | 0.00 | 0.00 | 0.00 | 10 | 1010.0 |
| 20260903155811 | 58 | 274 | 0.0 | 0.0 | 0.00 | 0.00 | 0.00 | 10 | 1009.7 |
| 20260903155306 | 58 | 290 | 0.0 | 0.0 | 0.00 | 0.00 | 0.00 | 10 | 1009.9 |
| 20260903154801 | 58 | 281 | 0.0 | 0.0 | 0.00 | 0.00 | 0.00 | 10 | 1009.9 |
| 20260903154257 | 57 | 274 | 0.0 | 0.0 | 0.00 | 0.00 | 0.00 | 10 | 1009.7 |
| 20260903153753 | 57 | 267 | 0.0 | 1.0 | 0.00 | 0.00 | 0.00 | 10 | 1009.9 |
| 20260903153249 | 57 | 226 | 0.0 | 1.0 | 0.00 | 0.00 | 0.00 | 10 | 1009.9 |
| 20260903152744 | 57 | 283 | 0.0 | 1.0 | 0.00 | 0.00 | 0.00 | 10 | 1009.9 |
| 20260903152240 | 56 | 293 | 0.0 | 1.0 | 0.00 | 0.00 | 0.00 | 10 | 1009.8 |
| 20260903151740 | 56 | 229 | 0.0 | 2.0 | 0.00 | 0.00 | 0.00 | 10 | 1009.9 |
| 20260903151236 | 56 | 204 | 0.0 | 2.0 | 0.00 | 0.00 | 0.00 | 10 | 1009.8 |
| 20260903150730 | 57 | 287 | 0.0 | 0.0 | 0.00 | 0.00 | 0.00 | 10 | 1010.1 |
| 20260903150225 | 56 | 231 | 0.0 | 1.0 | 0.00 | 0.00 | 0.00 | 10 | 1009.8 |
| 20260903145726 | 56 | 197 | 0.0 | 0.0 | 0.00 | 0.00 | 0.00 | 10 | 1009.9 |
| 20260903145221 | 55 | 321 | 0.0 | 0.0 | 0.00 | 0.00 | 0.00 | 10 | 1009.8 |
| 20260903144719 | 55 | 256 | 0.0 | 0.0 | 0.00 | 0.00 | 0.00 | 10 | 1010.1 |
| 20260903144215 | 55 | 290 | 0.0 | 1.0 | 0.00 | 0.00 | 0.00 | 10 | 1010.2 |
| 20260903143711 | 54 | 250 | 0.0 | 0.0 | 0.00 | 0.00 | 0.00 | 10 | 1009.8 |
| 20260903143207 | 53 | 268 | 0.0 | 0.0 | 0.00 | 0.00 | 0.00 | 10 | 1010.2 |
| 20260903142703 | 53 | 266 | 0.0 | 2.0 | 0.00 | 0.00 | 0.00 | 10 | 1009.8 |
| 20260903142159 | 52 | 275 | 0.0 | 0.0 | 0.00 | 0.00 | 0.00 | 10 | 1009.9 |
| 20260903141654 | 51 | 259 | 0.0 | 0.0 | 0.00 | 0.00 | 0.00 | 10 | 1009.7 |